Location: Bratislava
(48.1500°N, 17.1170°E)
Time: 07:37:49
(UTC+01:00)

Tiangong 2 - Visible Passes

Search period start: 24 March 2019 00:00
Search period end: 03 April 2019 01:00
Orbit: 380 x 390 km, 42.8° (Epoch: 23 March)

Date Brightness Start Highest point End Pass type
(mag) Time Alt. Az. Time Alt. Az. Time Alt. Az.
31 Mar 3.2 20:50:13 10° SSW 20:51:27 15° S 20:51:27 15° S visible
01 Apr 3.3 19:51:45 10° S 19:53:02 12° SSE 19:54:20 10° SE visible
01 Apr 3.4 21:26:26 10° SW 21:27:19 16° SW 21:27:19 16° SW visible
02 Apr 2.6 20:27:15 10° SW 20:29:45 22° SSE 20:30:49 19° SE visible
